Tracking 17884 objects as of 4-December-2016
HD Live streaming from Space Station
objects crossing your sky now

TITAN 3 R/B(2)

Track TITAN 3 R/B(2) now!


NORAD ID: 20669
Int'l Code: 1990-056C
Perigee: 281.8 km
Apogee: 33,127.9 km
Inclination: 24.0 °
Period: 581.4 minutes
Semi major axis: 23075 km
RCS: 6.947 m2 (large)
Launch date: June 23, 1990
Source: United States (US)
Launch site: AIR FORCE EASTERN TEST RANGE (AFETR)

Note: This is a ROCKET BODY
Your satellite tracking list
Your tracking list is empty





NASA's NSSDC Master Catalog

Two Line Element Set (TLE):
1 20669U 90056C   16335.63730150  .00001247  00000-0  47090-3 0  9993
2 20669  24.0256 170.9146 7117011 239.3636  32.8598  2.47666278222483
Source of the keplerian elements: AFSPC